TimeMDT,TemperatureF,Dew PointF,Humidity,Sea Level PressureIn,VisibilityMPH,Wind Direction,Wind SpeedMPH,Gust SpeedMPH,PrecipitationIn,Events,Conditions,WindDirDegrees,DateUTC
12:15 AM,41.0,8.6,26,30.12,10.0,Calm,Calm,-,N/A,,Clear,0,2012-10-20 06:15:00
12:35 AM,37.4,5.0,26,30.12,10.0,Calm,Calm,-,N/A,,Clear,0,2012-10-20 06:35:00
12:55 AM,37.4,8.6,30,30.12,10.0,Calm,Calm,-,N/A,,Clear,0,2012-10-20 06:55:00
1:15 AM,37.4,8.6,30,30.12,10.0,Calm,Calm,-,N/A,,Clear,0,2012-10-20 07:15:00
1:35 AM,33.8,6.8,32,30.12,10.0,Calm,Calm,-,N/A,,Clear,0,2012-10-20 07:35:00
1:55 AM,35.6,8.6,33,30.12,10.0,Calm,Calm,-,N/A,,Clear,0,2012-10-20 07:55:00
2:15 AM,33.8,6.8,32,30.12,10.0,Calm,Calm,-,N/A,,Clear,0,2012-10-20 08:15:00
2:35 AM,30.2,3.2,32,30.12,10.0,Calm,Calm,-,N/A,,Clear,0,2012-10-20 08:35:00
2:55 AM,37.4,10.4,33,30.11,10.0,Calm,Calm,-,N/A,,Clear,0,2012-10-20 08:55:00
3:15 AM,33.8,6.8,32,30.12,10.0,Calm,Calm,-,N/A,,Clear,0,2012-10-20 09:15:00
3:35 AM,32.0,6.8,35,30.11,10.0,Calm,Calm,-,N/A,,Clear,0,2012-10-20 09:35:00
3:55 AM,32.0,6.8,35,30.11,10.0,Calm,Calm,-,N/A,,Clear,0,2012-10-20 09:55:00
4:15 AM,28.4,6.8,40,30.11,10.0,North,3.5,-,N/A,,Clear,10,2012-10-20 10:15:00
4:35 AM,28.4,8.6,43,30.11,10.0,North,5.8,-,N/A,,Clear,360,2012-10-20 10:35:00
4:55 AM,30.2,8.6,40,30.11,10.0,North,6.9,-,N/A,,Clear,360,2012-10-20 10:55:00
5:15 AM,30.2,8.6,40,30.12,10.0,North,6.9,-,N/A,,Clear,10,2012-10-20 11:15:00
5:35 AM,32.0,8.6,38,30.12,10.0,North,6.9,-,N/A,,Clear,10,2012-10-20 11:35:00
5:55 AM,30.2,8.6,40,30.12,10.0,North,5.8,-,N/A,,Clear,360,2012-10-20 11:55:00
6:15 AM,26.6,6.8,43,30.12,10.0,North,6.9,-,N/A,,Clear,10,2012-10-20 12:15:00
6:35 AM,26.6,8.6,47,30.12,10.0,NNE,9.2,-,N/A,,Clear,20,2012-10-20 12:35:00
6:55 AM,28.4,8.6,43,30.12,10.0,North,9.2,-,N/A,,Clear,10,2012-10-20 12:55:00
7:15 AM,26.6,8.6,47,30.12,10.0,North,9.2,-,N/A,,Clear,360,2012-10-20 13:15:00
7:35 AM,26.6,8.6,47,30.12,10.0,North,8.1,-,N/A,,Clear,360,2012-10-20 13:35:00
7:55 AM,30.2,10.4,44,30.12,10.0,North,6.9,-,N/A,,Clear,360,2012-10-20 13:55:00
8:15 AM,32.0,10.4,41,30.14,10.0,Calm,Calm,-,N/A,,Clear,0,2012-10-20 14:15:00
8:35 AM,33.8,12.2,41,30.15,10.0,Calm,Calm,-,N/A,,Clear,0,2012-10-20 14:35:00
8:55 AM,41.0,14.0,33,30.15,10.0,Calm,Calm,-,N/A,,Clear,0,2012-10-20 14:55:00
9:15 AM,46.4,17.6,32,30.15,10.0,Calm,Calm,-,N/A,,Clear,0,2012-10-20 15:15:00
9:35 AM,50.0,17.6,28,30.15,10.0,NNW,3.5,-,N/A,,Clear,340,2012-10-20 15:35:00
9:55 AM,51.8,17.6,26,30.14,10.0,NNW,3.5,-,N/A,,Clear,330,2012-10-20 15:55:00
10:15 AM,55.4,19.4,25,30.14,10.0,NNW,3.5,-,N/A,,Clear,340,2012-10-20 16:15:00
10:35 AM,59.0,19.4,22,30.13,10.0,NW,3.5,-,N/A,,Clear,310,2012-10-20 16:35:00
10:55 AM,60.8,19.4,20,30.12,10.0,West,4.6,-,N/A,,Clear,260,2012-10-20 16:55:00
11:15 AM,60.8,19.4,20,30.12,10.0,SW,5.8,-,N/A,,Clear,220,2012-10-20 17:15:00
11:35 AM,62.6,19.4,19,30.11,10.0,SSW,6.9,-,N/A,,Clear,200,2012-10-20 17:35:00
11:55 AM,64.4,19.4,18,30.10,10.0,SSW,5.8,-,N/A,,Clear,200,2012-10-20 17:55:00
12:15 PM,64.4,19.4,18,30.09,10.0,West,3.5,-,N/A,,Clear,260,2012-10-20 18:15:00
12:35 PM,66.2,19.4,17,30.07,10.0,SW,9.2,-,N/A,,Clear,230,2012-10-20 18:35:00
12:55 PM,69.8,21.2,16,30.06,10.0,WSW,8.1,-,N/A,,Clear,250,2012-10-20 18:55:00
1:15 PM,69.8,19.4,15,30.05,10.0,SSW,9.2,-,N/A,,Clear,200,2012-10-20 19:15:00
1:35 PM,69.8,19.4,15,30.03,10.0,SW,9.2,-,N/A,,Clear,220,2012-10-20 19:35:00
1:55 PM,69.8,19.4,15,30.02,10.0,SSW,6.9,16.1,N/A,,Clear,210,2012-10-20 19:55:00
2:15 PM,71.6,19.4,14,30.00,10.0,SSW,8.1,-,N/A,,Clear,210,2012-10-20 20:15:00
2:35 PM,71.6,19.4,14,29.99,10.0,SSW,11.5,20.7,N/A,,Clear,200,2012-10-20 20:35:00
2:55 PM,71.6,19.4,14,29.99,10.0,SW,12.7,-,N/A,,Clear,220,2012-10-20 20:55:00
3:15 PM,73.4,17.6,12,29.98,10.0,SW,9.2,20.7,N/A,,Clear,220,2012-10-20 21:15:00
3:35 PM,73.4,17.6,12,29.98,10.0,SW,15.0,-,N/A,,Clear,220,2012-10-20 21:35:00
3:55 PM,73.4,15.8,11,29.98,10.0,WSW,18.4,-,N/A,,Clear,240,2012-10-20 21:55:00
4:15 PM,73.4,15.8,11,29.98,10.0,WSW,16.1,20.7,N/A,,Clear,240,2012-10-20 22:15:00
4:35 PM,73.4,15.8,11,29.98,10.0,WSW,15.0,-,N/A,,Clear,240,2012-10-20 22:35:00
4:55 PM,71.6,14.0,11,29.98,10.0,WSW,12.7,-,N/A,,Clear,240,2012-10-20 22:55:00
5:15 PM,69.8,14.0,12,29.98,10.0,SW,9.2,-,N/A,,Clear,230,2012-10-20 23:15:00
5:35 PM,69.8,15.8,13,29.98,10.0,SW,11.5,-,N/A,,Clear,230,2012-10-20 23:35:00
5:55 PM,66.2,15.8,14,29.98,10.0,WSW,10.4,-,N/A,,Clear,240,2012-10-20 23:55:00
6:15 PM,62.6,14.0,15,29.98,10.0,WSW,6.9,-,N/A,,Clear,240,2012-10-21 00:15:00
6:35 PM,60.8,12.2,15,29.99,10.0,WSW,5.8,-,N/A,,Clear,240,2012-10-21 00:35:00
6:55 PM,57.2,12.2,17,29.99,10.0,WSW,10.4,-,N/A,,Clear,240,2012-10-21 00:55:00
7:15 PM,53.6,12.2,19,30.00,10.0,NW,4.6,-,N/A,,Clear,310,2012-10-21 01:15:00
7:35 PM,55.4,14.0,20,30.00,10.0,Calm,Calm,-,N/A,,Clear,0,2012-10-21 01:35:00
7:55 PM,57.2,15.8,20,30.00,10.0,NW,3.5,-,N/A,,Clear,320,2012-10-21 01:55:00
8:15 PM,48.2,8.6,20,30.01,10.0,North,5.8,-,N/A,,Clear,10,2012-10-21 02:15:00
8:35 PM,46.4,10.4,23,30.01,10.0,ENE,5.8,-,N/A,,Clear,60,2012-10-21 02:35:00
8:55 PM,42.8,8.6,25,30.01,10.0,East,8.1,-,N/A,,Clear,100,2012-10-21 02:55:00
9:15 PM,44.6,12.2,27,30.01,10.0,East,8.1,-,N/A,,Clear,100,2012-10-21 03:15:00
9:35 PM,42.8,10.4,27,30.01,10.0,NE,4.6,-,N/A,,Clear,50,2012-10-21 03:35:00
9:55 PM,42.8,10.4,27,30.02,10.0,North,4.6,-,N/A,,Clear,360,2012-10-21 03:55:00
10:15 PM,39.2,10.4,31,30.03,10.0,NW,5.8,-,N/A,,Clear,320,2012-10-21 04:15:00
10:35 PM,41.0,10.4,29,30.03,10.0,North,4.6,-,N/A,,Clear,360,2012-10-21 04:35:00
10:55 PM,41.0,10.4,29,30.03,10.0,NE,4.6,-,N/A,,Clear,50,2012-10-21 04:55:00
11:15 PM,39.2,10.4,31,30.03,10.0,Calm,Calm,-,N/A,,Clear,0,2012-10-21 05:15:00
11:35 PM,41.0,12.2,31,30.03,10.0,ENE,6.9,-,N/A,,Clear,70,2012-10-21 05:35:00
11:55 PM,39.2,12.2,33,30.03,10.0,East,6.9,-,N/A,,Clear,80,2012-10-21 05:55:00